Weather History for Rogers, AR

Change the Weather History Date:

Tuesday, April 9, 2013

  Actual Average Record
Temperature  
Mean Temperature 72 °F -  
Max Temperature 79 °F 63 °F 87 °F (2011)
Min Temperature 64 °F 44 °F 30 °F (2003)
Cooling Degree Days 6    
Growing Degree Days 22 (Base 50)    
Moisture  
Dew Point 59 °F    
Average Humidity 66    
Maximum Humidity 75    
Minimum Humidity 50    
Precipitation  
Precipitation 0.00 in - - ()
Sea Level Pressure  
Sea Level Pressure 29.75 in    
Wind  
Wind Speed 13 mph (SSE)    
Max Wind Speed 18 mph    
Max Gust Speed 26 mph    
Visibility 10 miles    
Events      
Averages and records for this station are not official NWS values.
T = Trace of Precipitation, MM = Missing Value Source: NWS Daily Summary

Daily Weather History Graph

Daily Weather History Graph

Search for Another Location

Airport:

Trip Planner

Search our weather history database for the weather conditions in past years. The results will help you decide how hot, cold, wet, or windy it might be!

Date:

Astronomy

Apr. 09, 2013 Rise Set
Actual Time 6:50 AM CDT 7:45 PM CDT
Civil Twilight 6:24 AM CDT 8:11 PM CDT
Nautical Twilight 5:53 AM CDT 8:43 PM CDT
Astronomical Twilight 5:21 AM CDT 9:15 PM CDT
Moon 6:13 AM CDT (4/9) 7:21 PM CDT (4/9)
Length of Visible Light 13h 47m
Length of Day
12h 54m
Waning Crescent, 1% of the Moon is Illuminated
Apr 9
Waning Crescent
Apr 10
New
Apr 18
First Quarter
Apr 25
Full
May 2
Last Quarter

Hourly Weather History & Observations

Time (CDT) Temp. Dew Point Humidity Pressure Visibility Wind Dir Wind Speed Gust Speed Precip Events Conditions
12:57 AM 64.0 °F 55.9 °F 75% 29.74 in 10.0 mi SE 8.1 mph - N/A   Overcast
1:57 AM 66.9 °F 57.0 °F 70% 29.73 in 10.0 mi SE 9.2 mph - N/A   Overcast
2:57 AM 66.9 °F 57.0 °F 70% 29.72 in 10.0 mi SSE 13.8 mph - N/A   Overcast
3:57 AM 66.0 °F 57.0 °F 73% 29.70 in 10.0 mi SSE 16.1 mph - N/A   Clear
4:57 AM 64.9 °F 55.9 °F 73% 29.71 in 10.0 mi SSE 18.4 mph - N/A   Clear
5:57 AM 64.0 °F 55.0 °F 73% 29.73 in 10.0 mi South 17.3 mph 24.2 mph N/A   Partly Cloudy
6:57 AM 64.4 °F 55.4 °F 73% 29.77 in 10.0 mi SSE 15.0 mph - N/A   Overcast
6:59 AM 64.0 °F 55.9 °F 75% 29.74 in 10.0 mi South 16.1 mph - N/A   Overcast
7:57 AM 64.9 °F 57.0 °F 75% 29.76 in 10.0 mi SSE 12.7 mph - N/A   Overcast
8:57 AM 66.9 °F 57.9 °F 73% 29.77 in 10.0 mi South 13.8 mph - N/A   Overcast
9:57 AM 68.0 °F 59.0 °F 73% 29.78 in 10.0 mi SSE 15.0 mph 21.9 mph N/A   Overcast
10:20 AM 69.8 °F 60.8 °F 73% 29.81 in 10.0 mi SSE 16.1 mph 20.7 mph N/A   Overcast
10:42 AM 69.8 °F 60.8 °F 73% 29.81 in 10.0 mi South 15.0 mph 25.3 mph N/A   Overcast
10:57 AM 70.0 °F 60.1 °F 71% 29.78 in 10.0 mi South 18.4 mph 24.2 mph N/A   Overcast
11:04 AM 69.8 °F 60.8 °F 73% 29.81 in 10.0 mi South 13.8 mph 24.2 mph N/A   Overcast
11:22 AM 69.8 °F 60.8 °F 73% 29.81 in 10.0 mi SSE 16.1 mph - N/A   Overcast
11:57 AM 72.0 °F 61.0 °F 68% 29.78 in 10.0 mi South 18.4 mph 21.9 mph N/A   Overcast
12:57 PM 73.4 °F 60.8 °F 65% 29.80 in 9.0 mi SE 12.7 mph - N/A   Overcast
12:59 PM 73.0 °F 61.0 °F 66% 29.77 in 9.0 mi SE 13.8 mph - N/A   Overcast
1:57 PM 75.0 °F 61.0 °F 62% 29.76 in 10.0 mi SE 12.7 mph 23.0 mph N/A   Overcast
2:57 PM 75.0 °F 60.1 °F 60% 29.76 in 10.0 mi SSE 15.0 mph 24.2 mph N/A   Overcast
3:57 PM 75.0 °F 59.0 °F 57% 29.73 in 10.0 mi SSE 12.7 mph - N/A   Overcast
4:57 PM 79.0 °F 60.1 °F 52% 29.72 in 10.0 mi SE 12.7 mph - N/A   Mostly Cloudy
5:57 PM 78.1 °F 57.9 °F 50% 29.72 in 10.0 mi SE 17.3 mph 24.2 mph N/A   Overcast
6:57 PM 77.0 °F 57.9 °F 52% 29.73 in 10.0 mi SE 15.0 mph 23.0 mph N/A   Overcast
7:57 PM 75.9 °F 57.0 °F 52% 29.74 in 10.0 mi SE 11.5 mph - N/A   Mostly Cloudy
8:57 PM 73.0 °F 57.0 °F 57% 29.75 in 10.0 mi SE 9.2 mph - N/A   Partly Cloudy
9:57 PM 73.0 °F 57.0 °F 57% 29.75 in 10.0 mi SSE 9.2 mph - N/A   Scattered Clouds
10:57 PM 73.0 °F 59.0 °F 61% 29.73 in 10.0 mi SSE 12.7 mph - N/A   Clear
11:57 PM 73.0 °F 61.0 °F 66% 29.71 in 10.0 mi SSE 18.4 mph 26.5 mph N/A   Clear